Temp_Advection
nan nan nan nan nan nan nan nan nan nan nan nan nan nan nan nan nan nan nan nan nan nan nan nan nan nan nan nan nan nan nan nan nan nan nan nan nan nan nan nan nan nan nan nan nan nan nan nan nan nan nan nan nan nan nan nan nan nan nan nan nan nan nan nan nan nan nan nan nan
nan 0 -0 -0 -0 0 0 0 0 0 0 0 0 0 0 0 0 0 0 0 0 0 0 -0 -0 -0 -0 0 0 0 0 0 -0 -0 -0 -0 -0 -0 -0 -0 -0 -0 0 0 1 1 0 0 0 0 0 0 0 -0 -0 -0 0 0 0 0 0 0 0 0 0 -0 -0 0 nan
nan 0 0 -0 -0 0 0 0 0 0 0 0 0 0 0 0 0 0 0 0 0 0 -0 -0 -0 0 0 0 0 0 0 0 -0 -0 -0 -0 0 0 -0 0 0 0 0 0 0 0 0 0 0 0 0 0 -0 -0 -0 0 0 0 0 -0 -0 -0 0 0 -0 -0 -0 -0 nan
nan 0 -0 -0 -0 0 0 0 0 0 0 0 0 0 0 0 0 0 0 0 0 0 0 0 0 0 0 0 0 0 -0 -0 -0 -0 0 0 0 0 0 -0 0 0 0 0 0 0 0 0 -0 -0 -0 -0 -0 0 0 0 0 0 0 0 0 -0 -0 -0 -0 -0 -0 -0 nan
nan -0 -0 -0 0 0 0 0 0 0 0 0 0 0 0 0 0 0 0 0 0 0 -0 0 0 0 0 0 0 -0 -0 -0 -0 0 0 0 0 0 0 0 0 0 0 0 0 0 0 -0 -0 -0 -0 -0 -0 -0 -0 -0 -0 0 0 -0 -0 -0 -0 -0 -0 -0 -0 -0 nan
nan 0 0 0 0 0 0 0 0 0 0 0 0 0 0 0 0 0 0 0 0 -0 -0 0 0 0 0 0 -0 -0 -0 -0 0 0 -0 0 1 0 0 0 0 0 -0 -0 -0 -0 -0 -0 0 0 0 -0 -0 -0 -0 -0 -0 -0 -0 -0 -0 -0 -0 -0 -0 -0 -0 0 nan
nan 0 0 0 0 0 0 0 0 0 0 0 0 0 0 0 -0 -0 0 0 -0 0 0 0 0 0 0 -0 -0 -0 0 0 0 0 -0 0 0 0 0 0 1 0 0 -0 -0 -0 -0 -0 0 0 -0 -0 -0 -0 -0 -0 -0 -0 -0 -0 -0 -0 -0 -0 -0 -0 -0 -0 nan
nan 0 0 0 0 0 0 0 0 0 0 0 0 0 0 0 -0 0 0 0 0 0 0 0 0 0 0 -0 -0 -0 -0 0 0 0 -0 -0 0 0 0 0 1 0 0 -0 -0 -0 -0 -0 -0 -0 -0 -0 -0 -0 -0 -0 -0 -0 -0 -0 -0 -0 -0 -0 -1 -1 -1 -1 nan
nan 0 0 0 0 0 0 0 0 0 0 0 0 0 0 0 0 0 0 0 0 0 0 0 -0 -0 -0 -0 0 0 0 0 0 0 1 1 0 0 0 -0 -0 -0 -0 0 0 0 -0 -0 -0 -0 -0 -0 -0 -0 -0 -0 -0 -0 -0 -0 -0 -0 -0 -1 -1 -1 -1 -1 nan
nan -0 -0 -0 -0 0 0 0 0 0 0 0 0 0 0 0 0 0 0 0 0 0 0 -0 -0 -0 -0 0 0 0 0 0 0 0 0 0 0 0 0 0 0 -0 0 0 0 -0 -0 -0 -0 -0 -0 -0 -0 -0 -0 -0 -0 -0 -1 -1 -0 -0 -0 -1 -1 -1 -1 -1 nan
nan -0 -0 -0 -0 -0 -0 0 0 0 0 0 0 0 0 0 0 0 0 0 0 0 0 -0 0 0 -0 -0 0 0 0 0 0 0 0 0 0 0 0 0 0 0 0 0 0 0 0 0 -0 -0 -0 -0 -0 -0 -1 -1 -1 -1 -1 -1 -1 -0 -0 -0 -1 -1 -1 -1 nan
nan -0 -0 -0 -0 -0 -0 -0 -0 -0 0 -0 0 0 0 0 0 0 0 0 0 -0 -0 -0 -0 -0 -0 -0 0 0 0 -0 -0 -0 -0 0 0 0 0 0 0 0 0 0 0 0 0 0 -0 -0 -0 -0 -0 -1 -1 -1 -1 -1 -0 -0 -0 -0 -0 -0 -0 -0 -0 -0 nan
nan -0 -0 -0 -0 -0 -0 -0 -0 -0 -0 -0 -0 0 0 0 0 0 0 0 0 -0 -0 -0 -0 -0 -0 -0 0 0 -0 -0 -0 0 0 0 0 0 0 0 0 0 0 0 0 0 0 -0 -0 -0 -0 -0 -0 -1 -1 -1 -0 -0 -0 -0 -0 -0 -0 -0 -0 -0 -0 -0 nan
nan -0 -0 -0 -0 -0 -0 -0 -0 -0 -0 -0 -0 -0 0 -0 0 0 0 0 -0 -0 -0 -0 0 0 -0 -0 -0 -0 -0 0 0 0 0 0 0 0 0 0 0 0 0 -0 -0 0 0 -0 -0 -0 -0 -0 -0 -0 -0 -0 -0 -0 -0 -0 -0 -0 -0 -0 -0 -0 -0 -0 nan
nan -0 -0 -0 -0 -0 -0 -0 -0 -0 -0 -0 -0 -0 -0 -1 -1 -1 -1 -1 -1 -1 -0 -0 -0 -0 -0 -0 -0 0 0 0 0 0 0 0 0 0 0 0 -0 -0 -0 -0 -0 -0 -0 -0 -0 -0 -0 -0 -0 -0 -0 -0 -0 -0 -0 -0 -0 -0 -0 -0 -0 -0 -0 -0 nan
nan -0 -0 -0 -0 -0 -0 -0 -0 -0 -0 -0 -1 -1 -1 -1 -1 -1 -1 -1 -1 -0 -0 -0 -0 -0 0 0 0 0 0 0 0 0 0 0 0 0 0 0 -0 -0 -0 -0 -0 -0 -0 -0 -0 -0 -0 -0 -0 -0 -0 -0 -0 -0 -0 -0 -0 -0 -0 -0 -0 -0 -0 -0 nan
nan -0 -0 -0 -0 -0 -0 -0 -0 -0 -0 -0 -0 -0 -0 -0 -0 -0 -0 -0 0 0 0 0 0 0 0 0 0 0 0 0 0 0 0 0 0 -0 -0 -0 -0 -0 -0 -0 -0 -0 -0 -0 -0 -0 -0 -0 -0 -0 -0 -0 -0 -0 -0 -0 -0 -0 -0 -0 -0 0 -0 -0 nan
nan 0 0 -0 -0 -0 -0 -0 -0 -0 -0 0 0 0 0 0 0 0 0 0 0 0 0 0 0 0 0 0 0 0 0 0 0 0 0 0 -0 -0 -0 -0 -0 -0 -0 -0 -0 -0 -0 -0 -0 -0 -0 -0 -0 -0 -0 -0 -0 -0 -0 -0 -0 -0 0 0 0 0 0 0 nan
nan 0 0 0 0 0 -0 0 0 0 0 0 0 0 0 0 0 0 0 0 0 0 0 0 0 0 0 0 0 0 0 0 0 0 0 0 -0 -0 0 -0 -0 -0 -0 -0 -0 -0 -0 -0 -0 -0 -0 -0 -0 -0 -0 -0 -0 -0 -0 -0 0 -0 0 0 0 0 0 0 nan
nan -0 -0 -0 -0 0 0 0 0 0 0 0 0 0 0 0 0 0 0 0 0 0 0 0 0 0 0 0 0 0 0 0 0 0 0 0 -0 -0 -0 -0 -0 -0 -0 -0 -0 -0 -0 -0 -0 -0 -0 -0 -0 -0 -0 -0 -0 0 0 0 0 0 0 0 0 0 0 0 nan
nan -0 -0 -0 -0 -0 0 0 0 0 0 0 0 0 0 0 0 0 0 0 0 0 0 0 0 0 0 0 0 0 0 0 -0 -0 -0 -0 -0 -0 -0 -0 -0 -0 -0 -0 -0 -0 -0 -0 -0 -0 -0 -0 -0 -0 0 0 0 0 0 0 0 0 0 0 0 0 0 0 nan
nan -0 -0 -0 0 0 0 0 0 0 0 0 0 0 0 0 0 0 0 0 0 0 0 0 0 0 0 0 0 0 0 0 -0 -0 -0 -0 -0 -0 -0 -0 -0 -0 -0 -0 -0 -0 -0 -0 -0 -0 0 0 0 0 0 0 0 0 0 0 0 0 0 0 0 0 0 -0 nan
nan -0 0 0 0 0 0 0 0 0 0 0 0 0 0 0 0 0 0 0 0 0 0 0 0 0 0 0 0 0 -0 -0 -0 -0 -0 -0 -0 -0 -0 -0 -0 -0 -0 -0 -0 0 0 0 0 0 0 0 0 0 0 0 0 0 0 0 0 0 0 -0 -0 -0 -0 -0 nan
nan 0 0 0 0 0 0 0 0 0 0 0 0 0 0 0 0 0 0 0 0 0 0 0 0 0 0 0 -0 -0 -0 -0 -0 -0 -0 -0 -0 -0 -0 -0 -0 0 0 0 0 0 0 0 0 0 0 0 0 0 0 0 0 0 0 0 0 0 -0 -0 -0 -0 -0 -0 nan
nan 0 0 0 0 0 0 0 0 0 0 0 0 0 0 0 0 0 0 0 0 0 0 0 -0 -0 -0 -0 -0 -0 -0 -0 -0 -0 -0 -0 -0 -0 -0 -0 -0 0 0 0 0 0 0 0 0 0 0 0 0 0 0 0 0 0 0 0 -0 0 -0 -0 -0 -1 -1 -1 nan
nan 0 0 0 0 0 0 0 0 0 0 0 0 -0 -0 -0 -0 -0 -0 -0 -0 -0 -0 -0 -0 -0 -0 -0 -0 -0 -0 -0 -0 -0 -0 -0 -0 -0 -0 -0 -0 -0 0 0 0 0 0 0 0 0 0 0 0 -0 -0 -0 -0 0 0 -0 -0 -0 -0 -0 -0 -1 -1 -1 nan
nan 0 0 0 0 0 0 0 0 0 0 -0 -0 -0 -0 -0 -0 -0 -0 -0 -0 -0 -0 -0 -0 -0 -0 -0 -0 -0 -0 -0 -0 -0 -0 -0 -0 -0 -0 -0 -0 -0 -0 -0 -0 0 0 0 0 0 0 0 0 0 -0 -0 -0 -0 -0 -0 -0 -0 -0 -0 -0 -0 -1 -1 nan
nan 0 0 0 0 0 0 -0 -0 -0 -0 -0 -0 -0 -0 -0 -0 -0 -0 -0 -0 -0 -0 -0 -0 -0 -0 -0 -0 -0 -0 -0 -0 -0 -0 -0 -0 -0 -0 -0 -0 -0 -0 -0 -0 -0 -0 0 0 0 0 0 0 0 0 -0 -0 -1 -1 -1 -1 -1 -1 -1 -1 -1 -1 -1 nan
nan 0 0 0 0 -0 -0 -0 -0 -0 -0 -0 -0 -0 -0 -0 -0 -0 -0 -0 -0 -0 -0 -0 -0 -0 -0 -0 -0 -0 -0 -0 -0 -0 0 0 0 -0 -0 -0 -0 -0 -0 -0 -0 -0 -0 -0 -0 0 0 0 0 0 0 -0 -0 -0 -1 -1 -1 -1 -1 -1 -1 -1 -1 -1 nan
nan 0 0 0 0 -0 -0 -0 -0 -0 -0 -0 -0 -0 -0 -0 -0 -0 -0 -0 -0 -0 -0 -0 -0 -0 -0 -0 -0 -0 -0 -0 -0 0 0 0 0 0 -0 -0 -0 -0 -1 -1 -1 -1 -0 -0 -0 -0 -0 -0 -0 -0 -0 -0 -0 -1 -1 -1 -1 -1 -1 -1 -1 -1 -1 -1 nan
nan 0 0 0 -0 -0 -0 -0 -0 -0 -0 -0 -0 -0 -0 -0 -0 -0 -0 -0 -0 -0 -0 -0 -0 -0 -0 -0 -0 -0 -0 0 0 0 0 0 0 0 -0 -0 -0 -1 -1 -1 -1 -1 -1 -0 -0 -0 -0 -1 -0 -0 -0 -1 -1 -1 -1 -1 -1 -1 -1 -1 -1 -1 -1 -1 nan
nan 0 0 0 -0 -0 -0 -0 -0 -0 -0 -0 -0 -0 -0 -0 -0 -0 -0 -0 -0 -0 -0 -0 -0 -0 -0 0 0 0 0 0 0 0 0 0 0 0 0 -0 -0 -1 -1 -1 -1 -1 -1 -1 -0 -0 -1 -1 -1 -1 -1 -1 -1 -1 -1 -1 -1 -1 -1 -1 -1 -0 -0 -0 nan
nan -0 0 0 -0 -0 -0 -0 -0 -0 -0 -0 -0 -0 -0 -0 -0 -0 -0 -0 -0 -0 -0 -0 -0 -0 0 0 -0 -0 -0 0 0 0 0 0 0 0 0 -0 -0 -1 -1 -1 -1 -1 -1 -1 -0 -0 -0 -1 -1 -1 -1 -1 -1 -1 -1 -1 -1 -1 -1 -1 -0 -0 -0 -0 nan
nan -0 -0 0 0 -0 -0 -0 -0 -0 -0 -0 -0 -0 -0 -0 -0 -0 -0 -0 -0 -0 -0 -0 -0 -0 -0 -0 -0 0 -0 0 0 0 0 0 0 0 0 0 -0 -0 -1 -1 -1 -1 -1 -1 -0 -0 -0 -0 -1 -1 -1 -1 -1 -1 -1 -1 -1 -1 -1 -0 -0 -0 -0 -0 nan
nan -0 -0 -0 0 -0 -0 -0 -0 -0 -0 -0 -0 -0 -0 -0 -0 -0 -0 -0 -0 -0 -0 -0 -0 -0 -0 -0 -0 -0 0 0 0 -0 -0 0 0 0 0 0 -0 -0 -0 -1 -1 -1 -1 -1 -1 -0 -0 -0 -1 -1 -1 -1 -1 -1 -1 -0 -0 -0 0 0 -0 0 0 -0 nan
nan 0 0 -0 -0 -0 -0 -0 -0 -0 -0 -0 -0 -0 -0 -0 -0 -0 -0 -0 -0 -0 -0 -0 -0 -0 -0 -0 -0 -0 -0 0 0 0 -0 -0 0 0 0 0 -0 -0 -0 -0 -1 -1 -1 -1 -1 -1 -1 -1 -1 -1 -1 -1 -1 -1 -1 -1 -0 -0 0 0 0 0 -0 -0 nan
nan 0 0 0 -0 -0 -0 -0 -0 -0 -0 -0 -0 -0 -0 -0 -0 -0 -0 -0 -0 -0 -0 -0 -0 -0 -0 -0 -0 -0 -0 0 0 0 -0 -0 -0 -0 -0 0 -0 -0 -0 -0 -1 -1 -2 -2 -2 -1 -1 -1 -1 -1 -1 -1 -1 -1 -1 -1 -0 -0 -0 0 0 -0 -0 -0 nan
nan 1 1 0 0 -0 -0 -0 -0 -0 -0 -0 -0 -0 -0 -0 -0 -0 -0 -0 -0 -0 -0 -0 -0 -0 -0 -0 -0 -0 -0 0 0 0 -0 -0 -0 -0 -0 -0 -0 -0 -0 -0 -1 -1 -2 -2 -3 -2 -1 -1 -1 -1 -1 -1 -1 -1 -1 -1 -0 -0 -0 -0 -0 -0 -0 -0 nan
nan 0 1 1 0 -0 -0 -0 -0 0 0 0 -0 -0 -0 -0 -0 -0 -0 -0 -0 -0 -0 -0 -0 -0 -0 -0 0 -0 -0 -0 -0 -0 0 -0 -0 -0 -0 -0 -0 -0 -0 -0 -0 -1 -1 -2 -2 -2 -1 -1 -1 -1 -1 -1 -1 -1 -1 -0 -0 -0 -0 -0 -0 -0 0 0 nan
nan 0 1 1 0 0 -0 -0 -0 0 0 0 0 -0 -0 -0 0 -0 -0 -0 -0 -0 -0 -0 -0 -0 -0 -0 -0 -0 -0 -0 -0 -0 -0 -0 -0 -0 -0 -0 -0 -0 -0 -0 -0 -0 -0 -1 -1 -2 -2 -1 -1 -0 -0 -0 -0 -0 -0 -0 -0 -0 -0 -0 -0 -0 0 0 nan
nan nan nan nan nan nan nan nan nan nan nan nan nan nan nan nan nan nan nan nan nan nan nan nan nan nan nan nan nan nan nan nan nan nan nan nan nan nan nan nan nan nan nan nan nan nan nan nan nan nan nan nan nan nan nan nan nan nan nan nan nan nan nan nan nan nan nan nan nan
Wind_Speed
18 18 18 17 16 14 14 13 13 12 12 11 11 10 9 9 10 10 9 8 7 6 5 5 5 6 6 7 8 9 10 10 10 10 10 10 10 11 11 12 13 14 15 16 16 17 18 19 20 20 20 20 19 19 19 19 18 18 19 19 20 21 21 21 21 22 24 25 26
18 18 17 16 15 14 13 12 11 11 10 10 10 10 9 9 9 9 8 7 6 6 6 6 6 7 8 10 10 10 9 9 9 10 11 12 12 13 13 14 15 16 16 17 18 19 20 20 20 20 19 19 19 19 19 19 20 20 21 22 24 25 25 24 23 23 23 25 26
18 18 17 16 14 13 12 11 10 9 9 9 9 9 9 9 9 8 7 6 6 6 7 7 7 9 9 9 8 7 6 6 7 8 10 12 13 14 14 15 16 17 18 18 19 19 19 19 19 19 19 19 19 19 20 21 22 23 24 25 25 25 24 23 23 23 23 24 25
18 17 17 15 14 12 11 10 9 8 8 8 9 9 9 9 8 7 7 6 6 6 7 7 8 8 7 5 4 4 5 5 6 8 10 12 14 15 15 16 16 16 17 17 17 17 17 17 18 18 19 19 20 21 21 22 23 23 24 24 24 23 23 23 23 23 23 23 24
17 16 16 14 13 11 10 9 8 8 8 8 8 8 8 8 7 7 6 6 6 6 7 8 8 8 6 5 5 5 5 7 8 10 13 14 15 15 14 13 13 14 14 15 15 16 17 18 18 19 20 20 21 22 22 23 23 23 23 23 23 23 23 23 23 23 24 24 24
16 15 14 13 12 11 10 9 9 8 8 9 9 8 8 8 7 7 6 6 6 7 8 9 8 7 7 6 6 7 8 9 11 13 15 15 14 13 12 12 13 13 14 15 16 18 19 20 21 21 21 21 21 21 22 22 21 22 22 22 23 23 24 24 25 25 25 26 26
15 15 14 13 12 11 10 10 9 9 9 10 9 9 8 7 7 7 7 7 7 7 7 7 6 6 6 7 8 9 10 11 13 14 15 15 13 13 13 14 15 15 15 16 17 19 20 21 21 21 21 20 20 20 20 20 20 21 22 24 25 25 26 26 26 26 26 26 26
15 15 14 13 12 12 11 11 10 10 10 10 9 8 8 7 7 8 7 7 8 7 6 6 6 6 7 8 9 11 12 13 14 16 16 15 15 15 15 16 16 17 18 18 19 19 20 20 19 19 19 18 18 19 19 20 22 23 25 26 26 26 26 26 26 26 25 25 25
15 15 15 14 13 12 12 11 11 11 10 9 8 8 8 8 8 8 8 8 8 8 7 7 7 8 8 10 11 12 14 15 16 16 16 15 14 14 15 16 16 17 18 18 18 18 18 18 18 18 18 18 19 20 21 23 24 26 26 26 26 25 25 24 24 24 23 23 23
16 16 15 15 14 13 13 12 12 11 10 9 8 9 9 9 9 9 9 9 9 9 9 9 9 9 10 11 13 14 15 16 16 15 14 13 13 13 15 16 17 17 18 18 18 18 18 18 18 18 19 20 21 22 23 24 25 25 25 24 24 23 23 23 22 22 22 22 22
16 16 16 15 15 14 13 12 11 11 10 10 10 10 11 11 11 10 10 10 9 10 10 10 11 11 12 13 14 15 15 15 14 14 13 13 14 15 16 18 18 19 19 19 19 20 19 19 19 20 21 22 23 23 24 24 24 23 22 22 22 21 21 21 21 21 21 21 21
15 16 16 16 15 15 14 12 12 11 11 11 11 11 11 11 11 11 11 11 10 11 11 12 12 13 13 14 14 14 13 13 13 13 14 15 16 17 18 19 20 20 20 20 20 20 20 20 20 21 22 22 23 22 22 21 21 20 20 20 20 20 20 20 20 20 20 20 20
15 15 16 15 15 15 15 14 14 13 12 12 12 12 12 12 12 12 12 12 12 12 12 12 13 14 15 15 15 15 14 14 15 16 17 17 18 18 19 19 20 20 20 20 20 20 20 20 21 21 21 21 21 20 20 19 19 18 18 18 18 18 18 18 18 18 18 18 18
15 15 15 15 16 16 15 15 15 15 14 14 13 13 13 13 14 14 14 13 14 14 13 13 14 15 16 17 17 17 17 17 17 17 17 18 18 18 19 19 19 19 19 19 19 19 19 19 20 19 19 19 18 18 17 17 17 17 17 16 16 17 17 17 17 17 17 17 17
14 15 15 16 16 16 16 16 16 16 16 15 15 15 15 15 15 15 15 15 16 15 15 14 15 16 16 16 17 17 17 17 17 17 17 17 18 18 18 18 18 18 18 18 18 18 18 18 18 17 17 17 16 16 16 16 15 15 15 15 15 15 16 16 16 16 16 17 17
14 14 15 15 15 16 16 16 16 16 16 16 16 15 15 15 14 14 14 15 15 14 14 14 14 15 15 15 15 15 16 16 16 16 16 16 16 16 16 16 17 17 17 17 17 17 16 16 15 15 15 15 15 15 15 15 14 14 14 14 15 15 15 15 15 16 16 17 17
13 14 14 14 15 15 15 15 15 15 15 15 14 14 13 13 12 12 12 12 12 12 12 12 13 13 13 13 13 13 14 14 14 14 14 14 14 15 15 15 15 16 16 15 15 15 14 14 13 13 14 14 14 14 14 14 14 14 14 14 14 15 15 15 16 16 17 18 19
13 13 13 13 13 13 13 13 13 13 13 12 12 11 11 10 10 10 10 10 10 10 10 11 11 11 11 11 11 11 12 12 12 12 12 13 13 13 14 14 14 14 13 13 13 13 12 12 13 13 13 13 13 13 13 13 13 13 14 14 14 15 16 16 17 18 19 20 21
12 12 12 12 12 12 11 11 11 10 10 9 9 9 9 9 8 8 9 9 9 9 9 9 9 9 9 9 9 10 10 10 11 11 11 12 12 12 12 12 12 11 11 11 11 11 11 12 12 12 12 12 12 12 12 13 13 13 14 14 15 16 17 18 19 20 21 22 23
11 11 11 11 10 10 10 9 9 8 8 8 8 8 8 8 8 8 8 8 8 8 8 7 7 7 7 8 8 8 9 9 9 10 10 10 10 10 10 10 10 10 10 10 10 10 11 11 11 11 11 12 12 12 12 13 13 14 15 16 17 18 19 20 21 22 23 24 25
10 10 10 9 9 9 9 8 8 7 7 7 7 7 7 7 7 7 6 6 6 6 6 5 6 6 6 6 7 7 7 8 8 8 8 8 8 8 8 8 8 9 9 9 9 10 10 10 10 11 11 11 11 12 13 13 14 15 16 18 19 20 21 22 23 24 25 26 27
9 9 9 8 8 8 7 7 7 6 6 6 6 6 6 5 5 5 5 4 4 4 4 4 4 4 5 5 5 6 6 6 6 6 6 6 7 7 7 7 8 8 8 9 9 9 9 9 10 10 10 11 12 13 14 15 16 17 19 20 21 22 23 24 25 26 27 27 28
8 8 8 7 7 6 6 6 5 5 5 5 5 4 4 3 3 3 2 2 2 2 2 2 2 2 3 3 3 4 4 4 4 5 5 5 6 6 6 7 7 7 7 8 8 8 9 9 10 10 11 12 13 14 15 17 18 20 21 22 23 24 25 26 27 27 28 28 28
7 7 6 6 6 5 5 4 4 4 4 3 3 2 2 1 1 1 1 1 1 1 1 1 1 1 1 1 1 2 2 3 4 4 4 5 5 5 6 6 6 6 7 7 7 8 9 10 10 12 13 14 15 16 18 19 20 22 23 24 25 26 27 27 28 28 28 27 27
7 6 5 5 4 4 4 3 3 3 2 2 1 1 1 2 2 2 2 2 2 2 2 2 2 1 1 1 1 1 2 3 3 4 4 4 5 5 5 6 6 6 7 7 8 9 10 11 12 14 15 16 18 19 20 21 22 23 24 25 26 26 27 27 27 27 27 26 25
6 6 5 4 4 4 3 3 3 3 3 3 3 3 3 3 3 4 4 4 4 4 3 3 3 3 2 2 2 2 2 2 3 3 3 4 4 5 5 6 6 7 8 9 10 11 12 13 14 16 17 18 20 21 22 23 24 25 25 26 26 26 26 26 25 25 25 24 24
6 6 5 5 5 4 4 4 4 4 4 4 5 5 5 5 5 5 5 5 5 5 5 4 4 4 3 3 3 3 3 3 3 3 3 3 4 5 6 7 8 9 10 11 12 13 14 16 17 18 19 20 21 22 23 24 25 25 26 26 26 25 25 24 23 23 23 22 22
6 6 6 6 5 5 5 5 5 6 6 6 6 6 6 6 7 7 7 7 6 6 6 5 5 5 4 4 4 4 3 3 3 3 3 4 4 6 7 9 10 11 13 14 15 16 17 18 19 20 20 21 22 23 23 24 24 25 25 25 24 24 23 23 22 22 21 21 21
7 7 6 6 6 6 6 6 6 7 7 7 7 7 7 8 8 8 8 8 7 7 7 6 6 6 5 5 5 4 4 3 3 3 4 4 6 7 9 11 12 14 15 16 17 18 19 20 20 21 21 22 22 23 23 23 23 23 23 23 23 23 22 22 21 21 20 20 20
7 7 7 7 7 7 7 7 7 8 8 8 8 9 9 9 9 9 9 8 8 8 7 7 7 6 6 6 5 4 4 3 3 4 5 6 7 9 11 12 14 15 16 17 18 19 20 21 21 22 22 22 22 22 22 22 22 22 22 22 22 22 21 21 20 20 20 20 19
8 8 7 7 7 8 8 8 9 9 9 9 10 10 10 10 10 10 9 9 9 8 8 7 7 7 6 5 4 3 3 3 4 5 6 7 9 10 12 13 15 16 17 18 19 20 21 21 22 22 22 22 22 22 21 21 21 21 21 21 21 21 20 20 19 19 19 19 19
8 8 8 8 8 9 9 9 10 10 10 11 11 11 10 10 10 10 10 10 9 9 8 8 7 6 5 4 3 3 3 4 5 6 8 9 10 11 13 14 15 16 17 18 19 20 21 21 21 21 21 21 21 20 20 20 20 20 20 20 20 20 19 19 19 19 19 18 18
9 9 9 9 10 10 10 10 11 11 12 12 12 11 11 11 11 10 10 10 9 8 8 7 6 4 3 3 3 3 4 5 7 8 9 10 11 12 13 14 15 16 17 18 19 20 20 20 20 20 20 20 19 19 19 19 19 19 20 20 19 19 19 18 18 18 18 18 17
10 10 10 11 11 11 11 12 12 12 13 13 12 12 11 11 11 10 10 9 8 7 6 5 4 3 2 3 3 4 6 7 8 9 10 11 12 13 13 14 15 15 16 17 18 19 19 19 19 19 19 18 18 18 18 19 19 19 19 19 18 18 18 18 18 18 18 17 17
11 11 12 12 12 12 13 13 13 13 13 13 13 12 12 11 10 9 9 8 6 6 5 3 2 2 3 3 4 6 7 8 9 10 11 12 12 13 14 14 14 14 15 15 16 17 18 19 19 18 18 18 18 18 18 19 19 18 18 18 17 17 17 17 17 17 17 17 17
12 13 13 13 13 13 14 14 14 14 13 13 12 12 11 10 9 8 7 6 5 4 3 2 2 2 3 4 6 7 8 9 10 11 11 12 13 13 13 14 13 13 13 14 15 16 17 18 18 18 18 18 18 19 19 19 18 18 18 17 17 16 16 16 17 17 17 16 16
14 14 14 14 14 14 14 14 14 14 13 13 12 11 10 9 8 7 6 5 4 3 2 1 2 3 4 5 6 7 8 9 10 11 11 12 12 13 13 13 12 12 12 12 13 15 16 18 18 19 18 18 19 19 19 19 18 18 17 17 16 17 17 17 17 16 16 16 15
15 15 15 15 15 15 15 14 14 13 13 12 11 10 9 7 6 5 4 4 3 1 1 2 3 4 5 6 7 8 9 9 10 11 11 12 12 12 12 12 11 11 11 12 12 14 15 17 18 19 19 18 19 19 18 18 18 17 17 17 17 17 17 17 17 16 16 15 14
17 16 15 15 15 15 14 14 14 13 11 10 9 9 8 6 5 4 3 2 1 1 2 3 4 5 6 7 8 8 9 10 10 10 11 11 11 11 11 11 11 11 11 11 12 13 14 15 17 18 19 18 18 18 17 17 17 17 17 17 17 17 17 17 17 17 16 14 13
18 17 16 15 14 14 14 14 13 12 10 9 9 8 7 6 4 3 2 1 1 2 3 4 5 6 7 8 8 9 9 10 10 10 10 10 10 10 10 10 10 11 11 11 12 12 13 14 15 17 18 18 17 17 16 16 17 17 17 17 17 17 18 18 17 17 16 15 13
18 17 16 15 14 14 13 13 12 11 10 9 8 7 6 5 3 2 1 1 2 3 4 5 6 7 7 8 9 9 10 10 10 10 9 9 9 9 9 10 10 10 11 11 11 12 12 13 14 16 17 17 16 16 16 16 16 17 18 18 18 18 18 18 18 18 17 16 14
Wind_Direction
223 226 228 230 230 231 233 236 237 238 240 242 244 245 246 250 255 260 266 272 275 273 266 259 262 262 261 262 265 265 263 262 261 261 263 266 273 279 283 285 284 284 285 287 288 287 286 287 289 290 290 290 290 289 288 287 287 287 286 286 286 286 285 285 285 286 289 292 294
219 222 225 227 227 227 227 229 229 230 232 233 236 240 244 247 253 260 265 265 262 258 255 252 252 254 254 252 249 247 247 251 257 260 262 264 270 275 277 278 278 277 277 280 281 283 283 285 286 286 286 285 285 286 286 286 286 287 287 288 290 291 292 293 293 294 295 296 297
215 218 221 224 223 221 220 220 220 220 222 226 230 236 243 245 249 256 260 256 251 248 248 250 253 260 262 257 247 237 234 240 250 256 258 261 266 270 273 273 274 275 276 277 279 280 281 281 280 281 282 284 286 288 289 290 290 291 292 293 295 297 299 301 302 303 304 303 303
211 215 218 219 218 216 214 213 213 214 217 222 226 232 239 242 245 248 249 246 243 242 242 245 251 261 270 268 258 243 232 232 241 249 256 262 266 269 272 273 275 276 276 276 278 279 279 279 279 281 284 288 291 293 294 296 298 299 301 303 304 306 309 310 310 310 310 310 308
206 209 213 214 213 211 209 208 210 213 216 219 222 227 235 241 242 241 238 237 236 235 235 238 245 252 260 263 261 248 236 237 245 254 262 269 273 276 279 280 280 279 277 276 276 277 279 282 285 289 292 294 296 298 300 302 305 307 309 311 312 313 314 314 313 313 313 312 311
201 202 204 206 207 207 207 207 208 212 214 215 218 225 233 235 235 231 229 231 233 234 235 237 238 241 244 247 244 240 240 245 252 261 271 279 282 282 281 280 280 279 279 278 278 280 283 287 292 296 298 300 302 304 306 308 311 313 314 315 314 314 314 314 313 312 312 312 311
194 194 195 198 200 202 203 203 206 209 212 212 215 222 230 231 226 223 223 228 235 240 242 240 233 230 233 237 238 241 245 250 255 263 273 280 279 275 272 272 275 278 281 283 286 288 291 294 298 301 303 305 307 309 311 313 314 315 316 316 314 314 313 312 311 310 310 310 310
188 188 189 190 193 196 199 201 205 208 210 212 216 221 225 225 220 219 223 226 232 239 242 237 228 226 233 243 247 251 254 257 261 266 270 273 271 269 269 272 277 282 287 290 292 295 298 301 304 305 307 309 311 312 313 313 314 315 315 315 315 313 313 311 311 310 310 310 309
184 183 184 185 188 191 194 197 202 205 208 211 215 217 218 219 215 216 218 219 224 228 230 227 224 226 234 243 250 255 260 262 264 265 266 266 267 270 274 279 284 288 290 293 297 301 305 307 308 309 310 312 313 312 311 312 313 314 315 316 316 315 313 312 311 311 311 311 310
182 181 181 182 185 188 191 195 198 200 203 207 210 211 212 211 210 210 211 213 217 220 220 221 225 231 238 244 251 256 259 260 259 259 260 264 270 276 281 285 288 291 295 298 303 308 310 311 311 312 312 312 312 311 311 312 314 316 317 317 317 317 315 313 313 313 314 314 313
180 180 180 180 182 185 188 193 194 196 198 202 205 207 206 204 205 206 208 210 215 217 219 222 229 236 243 249 253 255 255 255 257 261 268 276 281 284 285 287 289 293 298 303 307 310 312 313 313 314 313 312 311 312 313 315 318 319 320 319 319 318 316 315 316 317 317 317 316
178 178 179 180 181 182 184 187 189 191 194 198 202 203 201 199 199 203 207 210 213 217 222 229 235 241 246 250 254 258 260 264 270 277 283 286 287 287 287 289 292 296 301 305 308 310 312 313 313 313 313 313 313 315 318 320 322 322 321 320 319 318 317 318 319 320 320 320 319
177 178 178 179 180 181 182 183 184 186 189 193 195 196 196 196 197 201 206 210 213 219 227 234 238 240 243 248 255 263 270 276 280 282 284 285 286 287 289 291 295 298 302 305 307 309 310 310 310 312 313 316 317 320 322 324 324 323 321 320 320 320 320 321 322 323 322 322 320
176 177 177 178 179 180 181 181 182 183 185 187 188 190 193 196 198 202 207 212 216 222 229 234 236 238 242 247 254 262 269 274 277 279 281 282 284 286 289 292 295 298 301 303 305 306 308 309 311 314 317 319 321 323 323 324 324 323 322 322 322 322 323 324 325 324 323 321 320
174 175 177 178 179 180 180 181 182 183 184 185 188 192 196 199 202 206 210 214 219 225 231 236 240 244 248 253 259 265 270 274 276 279 281 283 285 288 291 294 297 299 302 304 306 307 309 312 315 318 320 321 322 323 324 324 324 325 326 326 326 326 326 325 325 323 321 320 318
173 175 176 178 179 180 181 182 184 185 187 189 193 198 201 205 208 213 217 222 227 233 239 245 250 255 261 265 268 271 274 277 279 283 286 289 292 294 296 298 300 302 305 307 309 311 314 316 318 320 321 322 323 324 325 326 327 327 328 328 328 326 325 323 321 320 318 316 315
172 174 176 178 179 181 183 185 187 190 192 196 200 204 209 213 218 223 228 234 240 246 251 256 261 266 269 272 274 275 277 281 284 289 292 295 297 298 299 301 303 305 308 310 312 315 317 318 320 321 322 323 325 326 328 328 329 329 328 327 325 323 321 319 317 315 314 314 313
171 174 176 178 180 183 185 188 191 194 198 202 206 212 217 222 227 233 239 245 251 257 262 266 271 274 275 276 277 279 282 285 289 292 295 296 297 299 300 303 306 308 310 313 315 317 319 320 322 323 325 326 328 329 329 329 328 326 325 322 320 318 317 315 314 313 313 312 312
171 174 176 178 181 185 188 191 195 198 202 207 214 220 226 232 237 243 249 254 259 265 269 274 278 281 282 282 283 284 287 289 291 293 294 296 298 301 303 306 309 312 315 317 319 321 322 324 325 327 328 329 329 329 328 327 325 322 320 318 316 315 314 313 313 312 312 312 312
173 175 177 180 183 187 191 195 199 203 209 216 223 229 236 242 248 253 258 262 267 271 276 280 283 285 285 286 286 288 290 292 293 294 297 300 302 305 308 311 314 317 320 322 324 325 326 328 329 330 330 329 328 327 325 323 320 318 316 315 314 313 313 312 312 312 312 312 312
176 178 182 186 189 193 197 201 206 211 217 224 231 237 243 250 256 261 266 270 274 278 282 284 285 285 286 286 287 289 292 295 297 300 303 307 310 314 316 319 321 323 325 327 328 329 330 330 331 330 328 327 325 323 320 318 316 315 314 313 313 313 313 313 313 313 313 313 313
181 185 189 193 198 201 206 210 214 219 225 231 237 244 250 256 261 266 271 275 280 282 284 284 284 284 285 287 289 292 296 301 305 310 314 318 321 323 324 325 326 328 329 331 332 332 332 331 330 328 325 323 320 318 317 315 314 313 313 313 313 313 313 313 313 313 314 314 313
188 192 197 202 206 210 213 217 222 227 231 237 242 249 254 260 264 267 268 271 274 278 275 275 278 280 285 290 296 302 307 314 320 325 328 329 330 329 329 329 330 331 332 334 334 332 331 328 326 323 321 319 317 316 315 314 314 313 313 313 313 313 314 314 314 314 314 314 314
192 197 202 206 210 213 216 220 223 228 232 237 240 244 245 245 234 221 212 200 186 181 186 197 218 247 279 297 313 326 332 337 338 339 338 337 335 334 333 332 333 335 336 335 332 330 327 324 322 320 319 317 316 315 315 314 314 313 313 313 313 314 315 315 315 315 316 316 316
190 194 197 200 202 203 204 207 207 207 207 204 194 174 155 145 140 140 138 136 134 133 132 133 130 126 112 87 56 27 12 2 355 350 345 342 341 338 336 335 336 336 335 332 329 325 323 321 320 319 318 317 316 316 315 315 314 314 314 314 314 315 316 317 317 318 318 319 319
181 182 181 182 181 179 177 173 167 162 156 149 140 135 131 130 131 130 130 128 126 127 126 124 121 115 109 95 80 61 42 26 14 5 358 353 348 343 339 335 334 333 330 327 325 322 321 320 318 318 318 317 317 316 316 315 315 315 315 315 316 317 319 320 320 321 321 322 323
169 167 166 163 160 157 153 148 144 140 137 133 130 129 129 130 129 128 127 125 125 125 123 120 116 111 104 96 85 74 63 49 37 26 15 5 353 343 336 331 329 328 326 324 322 321 319 318 318 318 318 317 317 317 317 316 316 317 317 318 320 321 322 323 324 324 324 325 326
160 158 155 152 149 146 142 138 137 135 132 131 130 130 130 131 129 128 126 125 123 121 119 115 112 108 102 95 89 82 75 64 52 36 20 3 349 338 331 327 325 324 323 322 321 320 319 318 318 318 318 318 318 318 318 318 319 320 321 323 324 325 326 327 326 326 327 327 328
155 153 150 148 145 142 139 137 136 134 133 131 131 132 132 131 129 126 125 123 120 118 114 112 108 104 99 96 91 85 78 65 47 27 7 352 340 332 327 324 323 323 322 321 320 319 318 318 318 319 319 320 320 321 321 322 323 324 326 328 329 330 330 330 329 328 329 329 331
152 150 148 146 144 142 139 138 137 135 134 133 133 133 132 130 128 126 123 120 117 115 112 108 105 101 99 95 91 83 71 51 25 5 351 341 333 327 325 323 322 322 321 320 319 319 319 319 320 321 322 322 323 324 325 325 327 329 331 332 333 333 333 332 331 331 330 331 333
151 149 147 146 145 144 142 140 138 136 135 135 134 132 131 128 126 123 120 118 115 114 111 107 104 101 98 92 85 71 47 22 360 348 338 332 327 324 323 323 322 321 321 320 320 319 320 320 321 323 324 325 326 327 328 330 331 334 335 336 336 335 334 333 332 332 332 333 334
150 149 148 148 147 146 144 141 139 137 136 134 133 131 128 126 124 121 119 117 116 114 111 108 105 101 94 83 66 39 13 355 343 335 329 326 323 323 323 323 323 322 321 321 320 320 320 321 323 325 327 328 329 330 332 334 336 337 338 338 337 336 335 334 333 333 333 334 334
150 149 149 149 149 147 144 142 139 138 136 133 131 128 126 124 122 120 119 118 117 115 111 108 103 95 81 57 28 5 348 338 331 327 325 323 322 323 324 324 323 323 322 322 321 320 321 322 324 327 330 331 332 334 335 337 339 340 340 340 338 337 336 335 334 334 334 334 335
151 150 149 149 148 146 144 141 139 137 135 132 129 127 125 124 123 122 121 120 117 113 108 102 94 76 46 16 355 342 335 329 326 324 323 323 323 324 324 324 323 323 323 322 321 321 322 324 326 330 333 335 336 337 339 341 342 342 342 341 339 338 337 336 335 335 335 336 336
151 150 149 149 148 145 143 140 138 135 133 131 129 127 126 125 125 124 122 120 116 110 103 93 72 38 6 348 338 332 329 326 325 324 324 324 324 324 324 324 324 324 324 324 323 322 324 326 329 333 336 338 340 341 343 344 345 345 345 344 342 341 340 339 338 338 339 339 338
150 150 149 148 146 144 141 139 136 134 133 131 130 129 129 128 127 125 122 119 115 108 97 74 31 357 342 335 332 329 327 326 325 325 325 325 325 325 326 326 326 327 326 326 326 326 327 329 332 335 339 342 344 345 345 346 348 348 348 348 347 346 346 345 344 344 343 343 342
149 149 149 148 146 143 140 138 136 134 133 132 132 131 130 130 128 125 123 120 115 108 87 29 351 339 335 332 330 328 327 326 326 326 326 326 327 328 328 329 330 330 330 331 332 331 331 332 334 337 341 345 347 348 348 349 351 352 353 353 353 352 351 351 351 350 349 348 347
148 149 149 148 146 143 140 138 136 136 135 135 134 133 132 131 128 125 123 120 114 98 35 350 340 336 334 332 330 329 328 328 328 328 328 328 329 331 332 334 335 335 335 337 337 336 335 335 336 338 343 348 350 351 351 352 355 357 357 358 357 356 355 355 355 355 354 353 350
147 148 149 148 145 143 140 138 138 138 138 137 137 136 135 134 131 127 122 116 95 34 355 344 338 336 334 332 331 330 329 330 330 330 331 331 333 334 337 340 341 341 340 341 341 339 339 340 339 340 344 350 353 354 355 356 359 0 1 0 360 358 357 357 356 356 357 357 354
147 148 149 148 145 143 141 140 140 140 140 140 138 138 137 137 134 128 116 88 30 358 346 342 338 336 335 333 332 332 332 332 333 333 334 336 337 339 342 345 347 346 345 345 345 343 342 342 340 341 345 352 355 357 358 1 3 4 3 2 0 359 358 357 357 357 357 358 357
149 149 149 147 145 144 143 143 143 143 143 142 141 140 139 139 134 125 92 30 2 350 345 341 339 337 336 335 334 334 335 335 336 336 338 340 343 345 347 350 351 350 348 347 347 346 344 342 340 343 348 354 357 360 2 5 7 7 6 3 1 360 359 358 357 357 357 357 356
Height
1514 1515 1516 1516 1517 1518 1519 1520 1521 1522 1523 1524 1525 1525 1526 1526 1527 1527 1528 1529 1529 1530 1530 1531 1531 1531 1531 1531 1531 1531 1531 1531 1531 1531 1531 1531 1531 1531 1531 1531 1530 1530 1530 1529 1529 1528 1528 1527 1527 1526 1526 1525 1525 1524 1523 1522 1522 1521 1521 1521 1521 1521 1520 1520 1519 1518 1518 1517 1516
1513 1514 1515 1515 1516 1517 1518 1519 1520 1521 1522 1523 1524 1524 1525 1526 1526 1526 1527 1528 1528 1529 1529 1530 1530 1531 1531 1531 1531 1530 1530 1530 1530 1531 1531 1531 1531 1531 1530 1530 1529 1529 1529 1528 1528 1527 1526 1526 1525 1525 1524 1523 1523 1522 1522 1521 1521 1521 1521 1521 1520 1520 1520 1519 1519 1518 1517 1516 1515
1512 1513 1514 1514 1515 1516 1517 1518 1519 1520 1521 1522 1523 1524 1524 1525 1525 1526 1526 1527 1527 1528 1528 1529 1529 1529 1529 1529 1529 1529 1529 1529 1530 1530 1530 1530 1530 1530 1529 1529 1528 1528 1527 1527 1526 1526 1525 1524 1523 1523 1522 1522 1522 1522 1522 1521 1521 1521 1521 1520 1519 1518 1518 1517 1517 1516 1515 1515 1514
1511 1512 1513 1514 1515 1516 1516 1517 1518 1519 1520 1521 1522 1523 1523 1524 1524 1525 1526 1526 1526 1527 1527 1528 1528 1528 1528 1527 1527 1527 1528 1528 1529 1529 1529 1529 1529 1528 1528 1528 1527 1526 1526 1525 1524 1524 1523 1522 1522 1522 1522 1522 1522 1521 1521 1521 1520 1520 1519 1518 1517 1517 1516 1516 1515 1514 1514 1513 1512
1509 1511 1512 1513 1514 1515 1516 1517 1518 1518 1519 1520 1521 1521 1522 1523 1523 1524 1525 1525 1526 1526 1526 1527 1527 1527 1526 1527 1527 1527 1527 1527 1528 1528 1528 1528 1527 1527 1526 1526 1525 1524 1524 1523 1522 1522 1522 1521 1522 1522 1521 1521 1521 1521 1520 1520 1519 1518 1518 1517 1516 1515 1515 1514 1513 1513 1512 1511 1511
1508 1510 1511 1512 1513 1514 1515 1516 1517 1518 1519 1519 1520 1521 1521 1522 1522 1523 1524 1524 1525 1525 1526 1526 1526 1526 1526 1526 1526 1526 1526 1526 1526 1526 1526 1526 1525 1525 1524 1523 1523 1522 1522 1521 1521 1521 1521 1521 1521 1521 1521 1521 1520 1520 1519 1518 1518 1517 1516 1516 1515 1514 1514 1513 1512 1511 1511 1510 1509
1508 1509 1510 1511 1512 1513 1514 1515 1516 1517 1518 1519 1519 1520 1521 1521 1522 1522 1523 1523 1524 1524 1524 1524 1524 1525 1525 1525 1526 1526 1526 1526 1525 1525 1524 1524 1523 1523 1522 1522 1521 1521 1521 1521 1521 1521 1521 1521 1521 1521 1520 1520 1519 1518 1518 1517 1517 1516 1516 1515 1514 1513 1512 1512 1511 1511 1510 1509 1508
1507 1508 1509 1511 1511 1513 1514 1515 1516 1516 1517 1518 1519 1519 1520 1521 1521 1521 1522 1522 1523 1523 1523 1523 1524 1524 1524 1525 1525 1525 1524 1524 1524 1523 1523 1522 1521 1521 1521 1521 1521 1521 1521 1521 1521 1521 1521 1521 1520 1520 1519 1519 1518 1517 1517 1516 1516 1515 1515 1514 1513 1512 1511 1511 1510 1509 1509 1508 1507
1506 1507 1508 1510 1511 1511 1513 1514 1515 1516 1516 1517 1518 1519 1519 1520 1520 1520 1521 1521 1521 1522 1522 1523 1523 1523 1523 1523 1523 1523 1523 1523 1522 1522 1521 1521 1521 1521 1521 1521 1521 1521 1521 1521 1521 1521 1520 1520 1520 1519 1518 1518 1517 1516 1516 1516 1515 1514 1513 1512 1512 1511 1510 1510 1509 1508 1508 1507 1506
1506 1506 1508 1509 1510 1511 1512 1513 1514 1515 1516 1516 1517 1518 1518 1518 1519 1519 1520 1520 1521 1521 1521 1522 1522 1522 1522 1522 1522 1522 1522 1521 1521 1521 1521 1521 1521 1521 1521 1521 1521 1521 1521 1520 1520 1520 1520 1519 1519 1518 1517 1517 1516 1516 1515 1515 1514 1513 1512 1511 1511 1510 1509 1509 1508 1507 1506 1506 1505
1505 1506 1507 1508 1509 1510 1511 1512 1513 1514 1515 1516 1516 1516 1517 1517 1518 1519 1519 1520 1520 1520 1521 1521 1521 1521 1521 1521 1521 1521 1520 1520 1519 1519 1519 1520 1520 1520 1520 1520 1520 1520 1520 1520 1519 1519 1519 1518 1518 1517 1516 1516 1516 1515 1514 1513 1513 1512 1511 1511 1510 1509 1508 1508 1507 1506 1506 1505 1504
1505 1506 1506 1507 1508 1509 1511 1511 1512 1513 1514 1515 1515 1516 1516 1516 1517 1518 1518 1519 1519 1520 1520 1520 1520 1520 1520 1520 1520 1519 1519 1518 1519 1519 1520 1520 1520 1520 1520 1520 1520 1519 1519 1519 1519 1518 1518 1517 1517 1516 1516 1515 1514 1514 1513 1512 1512 1511 1510 1510 1509 1508 1508 1507 1506 1506 1505 1504 1503
1504 1505 1506 1507 1508 1509 1510 1511 1511 1512 1513 1514 1514 1515 1515 1516 1516 1517 1517 1518 1518 1519 1519 1519 1519 1519 1519 1519 1518 1518 1518 1519 1519 1520 1520 1520 1520 1520 1520 1519 1519 1519 1519 1518 1518 1518 1517 1516 1516 1516 1515 1514 1513 1513 1512 1511 1511 1511 1510 1509 1508 1508 1507 1506 1506 1505 1504 1503 1503
1504 1505 1506 1507 1507 1508 1509 1510 1511 1511 1512 1513 1513 1514 1514 1515 1515 1516 1516 1517 1517 1517 1518 1518 1518 1518 1518 1518 1518 1518 1519 1519 1519 1519 1520 1520 1519 1519 1519 1519 1519 1518 1518 1518 1517 1517 1516 1516 1515 1515 1514 1513 1512 1512 1511 1511 1510 1510 1509 1508 1508 1507 1506 1506 1505 1504 1503 1503 1502
1504 1505 1506 1506 1507 1508 1509 1510 1510 1511 1511 1512 1513 1513 1513 1514 1514 1515 1515 1516 1516 1516 1517 1517 1517 1517 1517 1518 1518 1518 1519 1519 1519 1519 1519 1519 1519 1519 1518 1518 1518 1517 1517 1517 1516 1516 1515 1515 1514 1514 1513 1512 1512 1511 1511 1510 1510 1509 1508 1507 1507 1506 1506 1505 1504 1503 1502 1502 1501
1504 1505 1505 1506 1507 1508 1508 1509 1510 1511 1511 1511 1512 1512 1513 1513 1514 1514 1515 1515 1516 1516 1516 1517 1517 1517 1518 1518 1518 1518 1518 1518 1518 1518 1518 1518 1518 1518 1517 1517 1517 1516 1516 1516 1515 1515 1514 1514 1513 1513 1512 1512 1511 1511 1510 1509 1509 1508 1507 1506 1506 1505 1505 1504 1503 1502 1501 1501 1500
1504 1505 1506 1506 1507 1508 1508 1509 1510 1510 1511 1511 1512 1512 1513 1513 1514 1514 1515 1515 1516 1516 1516 1517 1517 1517 1517 1517 1517 1517 1517 1518 1518 1518 1517 1517 1517 1517 1516 1516 1516 1516 1515 1515 1514 1514 1513 1513 1513 1512 1511 1511 1510 1510 1509 1508 1508 1507 1506 1506 1505 1504 1503 1503 1502 1501 1501 1500 1499
1504 1505 1506 1506 1507 1508 1508 1509 1510 1510 1511 1511 1512 1513 1513 1514 1514 1515 1515 1515 1516 1516 1516 1516 1516 1516 1516 1516 1517 1517 1517 1517 1517 1517 1516 1516 1516 1516 1516 1515 1515 1515 1514 1514 1514 1513 1513 1512 1512 1511 1511 1510 1510 1509 1508 1507 1507 1506 1505 1505 1504 1503 1503 1502 1501 1501 1500 1499 1498
1504 1505 1506 1506 1507 1508 1509 1509 1510 1511 1511 1512 1512 1513 1513 1514 1514 1514 1515 1515 1515 1515 1515 1516 1516 1516 1516 1516 1516 1516 1516 1516 1516 1516 1516 1516 1516 1515 1515 1515 1514 1514 1514 1513 1513 1512 1512 1511 1511 1511 1510 1509 1509 1508 1507 1507 1506 1506 1505 1504 1503 1502 1502 1501 1500 1499 1498 1498 1496
1505 1506 1506 1507 1507 1508 1509 1509 1510 1511 1511 1512 1512 1512 1513 1513 1513 1514 1514 1514 1515 1515 1515 1515 1515 1515 1515 1515 1515 1515 1515 1515 1515 1515 1515 1515 1515 1514 1514 1514 1514 1513 1513 1512 1512 1512 1511 1511 1510 1510 1509 1509 1508 1507 1507 1506 1506 1505 1504 1503 1502 1501 1501 1500 1499 1498 1497 1496 1495
1505 1506 1506 1507 1507 1508 1509 1509 1510 1511 1511 1511 1512 1512 1512 1513 1513 1513 1513 1514 1514 1514 1514 1514 1514 1514 1514 1515 1515 1515 1515 1515 1515 1514 1514 1514 1514 1514 1513 1513 1513 1512 1512 1512 1511 1511 1511 1510 1510 1509 1509 1508 1507 1507 1506 1506 1505 1504 1503 1502 1501 1501 1500 1499 1498 1497 1496 1495 1494
1505 1506 1506 1507 1507 1508 1509 1509 1510 1510 1511 1511 1511 1511 1512 1512 1512 1513 1513 1513 1513 1513 1513 1513 1514 1514 1514 1514 1514 1514 1514 1514 1514 1514 1514 1513 1513 1513 1513 1512 1512 1512 1512 1511 1511 1511 1510 1510 1509 1509 1508 1508 1507 1506 1506 1505 1504 1503 1502 1501 1500 1499 1498 1497 1496 1495 1494 1493 1492
1505 1505 1506 1506 1507 1508 1508 1509 1510 1510 1510 1511 1511 1511 1511 1511 1512 1512 1512 1512 1512 1513 1513 1513 1513 1513 1513 1513 1513 1513 1513 1513 1513 1513 1513 1513 1513 1512 1512 1512 1512 1511 1511 1511 1511 1510 1510 1509 1509 1508 1508 1507 1506 1506 1505 1504 1503 1502 1501 1500 1499 1498 1497 1496 1495 1494 1493 1491 1490
1505 1505 1506 1506 1507 1508 1508 1509 1509 1510 1510 1510 1510 1511 1511 1511 1511 1511 1512 1512 1512 1512 1512 1512 1513 1513 1513 1513 1513 1513 1513 1513 1513 1512 1512 1512 1512 1512 1512 1512 1511 1511 1511 1511 1510 1510 1509 1509 1508 1508 1507 1506 1506 1505 1504 1503 1502 1501 1500 1499 1498 1497 1496 1495 1493 1492 1491 1490 1489
1504 1505 1506 1506 1507 1507 1508 1508 1509 1509 1509 1510 1510 1510 1511 1511 1511 1511 1511 1511 1512 1512 1512 1512 1512 1512 1512 1512 1512 1512 1512 1512 1512 1512 1512 1512 1512 1512 1511 1511 1511 1511 1511 1510 1510 1510 1509 1508 1508 1507 1506 1506 1505 1504 1503 1502 1501 1500 1499 1498 1497 1496 1495 1493 1492 1491 1489 1488 1487
1504 1505 1506 1506 1506 1507 1507 1508 1508 1509 1509 1509 1510 1510 1510 1510 1511 1511 1511 1511 1511 1511 1512 1512 1512 1512 1512 1512 1512 1512 1512 1512 1512 1512 1512 1512 1511 1511 1511 1511 1511 1510 1510 1510 1509 1509 1508 1508 1507 1506 1506 1505 1504 1503 1502 1501 1500 1499 1498 1496 1496 1495 1493 1492 1491 1490 1488 1487 1486
1504 1505 1505 1506 1506 1507 1507 1507 1508 1508 1509 1509 1509 1509 1510 1510 1510 1511 1511 1511 1511 1511 1511 1511 1512 1512 1512 1512 1512 1512 1512 1512 1512 1512 1512 1511 1511 1511 1511 1510 1510 1510 1509 1509 1509 1508 1507 1507 1506 1506 1505 1504 1503 1502 1501 1500 1498 1497 1496 1495 1494 1493 1492 1491 1490 1488 1487 1486 1485
1504 1504 1505 1506 1506 1506 1507 1507 1507 1508 1508 1509 1509 1509 1509 1510 1510 1510 1511 1511 1511 1511 1511 1511 1512 1512 1512 1512 1512 1512 1512 1512 1512 1512 1511 1511 1511 1511 1510 1510 1510 1509 1509 1508 1508 1507 1506 1506 1505 1505 1504 1503 1502 1501 1500 1498 1497 1496 1495 1494 1493 1492 1491 1490 1488 1487 1486 1485 1484
1504 1504 1505 1505 1506 1506 1506 1507 1507 1507 1508 1508 1508 1509 1509 1509 1510 1510 1511 1511 1511 1511 1511 1511 1511 1512 1512 1512 1512 1512 1512 1512 1512 1511 1511 1511 1511 1511 1510 1509 1509 1508 1508 1507 1507 1506 1505 1505 1504 1503 1502 1501 1501 1499 1498 1497 1496 1495 1494 1493 1492 1491 1490 1488 1487 1486 1485 1484 1483
1503 1504 1504 1505 1505 1506 1506 1506 1507 1507 1508 1508 1508 1509 1509 1509 1510 1510 1510 1511 1511 1511 1511 1511 1512 1512 1512 1512 1512 1512 1512 1512 1512 1511 1511 1511 1511 1510 1510 1509 1508 1507 1507 1506 1506 1505 1504 1503 1503 1502 1501 1500 1499 1498 1497 1496 1495 1494 1493 1492 1491 1490 1489 1487 1486 1485 1484 1483 1482
1503 1503 1504 1505 1505 1506 1506 1506 1507 1507 1507 1508 1508 1508 1509 1509 1510 1510 1510 1511 1511 1511 1511 1511 1512 1512 1512 1512 1512 1512 1512 1512 1512 1511 1511 1511 1510 1510 1509 1508 1507 1507 1506 1505 1505 1504 1503 1502 1501 1501 1500 1499 1498 1497 1496 1495 1494 1493 1492 1491 1490 1489 1488 1486 1485 1484 1483 1482 1481
1503 1503 1504 1504 1505 1505 1506 1506 1506 1507 1507 1507 1508 1508 1509 1509 1510 1510 1511 1511 1511 1511 1511 1512 1512 1512 1512 1512 1512 1512 1512 1512 1511 1511 1511 1511 1510 1509 1509 1508 1507 1506 1505 1504 1504 1503 1502 1501 1501 1500 1499 1498 1497 1496 1496 1495 1494 1492 1491 1490 1489 1488 1487 1486 1485 1483 1482 1481 1481
1502 1503 1503 1504 1505 1505 1505 1506 1506 1506 1507 1507 1508 1508 1509 1509 1510 1510 1511 1511 1511 1511 1512 1512 1512 1512 1512 1512 1512 1512 1512 1511 1511 1511 1511 1510 1509 1509 1508 1507 1506 1506 1505 1504 1503 1502 1501 1500 1500 1499 1498 1497 1496 1496 1495 1494 1493 1492 1491 1490 1488 1487 1486 1485 1484 1483 1481 1481 1480
1502 1503 1503 1504 1504 1505 1505 1506 1506 1506 1507 1507 1508 1509 1509 1510 1510 1511 1511 1511 1511 1512 1512 1512 1512 1512 1512 1512 1512 1512 1511 1511 1511 1511 1510 1509 1509 1508 1507 1507 1506 1505 1504 1503 1502 1501 1500 1500 1499 1498 1497 1496 1496 1495 1494 1493 1492 1491 1490 1489 1488 1486 1485 1484 1483 1482 1481 1480 1479
1502 1502 1503 1504 1504 1505 1505 1506 1506 1507 1507 1508 1508 1509 1509 1510 1510 1511 1511 1511 1512 1512 1512 1512 1512 1512 1512 1512 1512 1511 1511 1511 1510 1510 1509 1509 1508 1507 1507 1506 1505 1504 1503 1502 1501 1500 1499 1499 1498 1497 1497 1496 1495 1494 1493 1492 1491 1490 1489 1488 1487 1486 1485 1483 1482 1481 1480 1479 1478
1502 1502 1503 1504 1504 1505 1505 1506 1506 1507 1507 1508 1508 1509 1510 1510 1511 1511 1511 1511 1512 1512 1512 1512 1512 1512 1512 1512 1511 1511 1511 1510 1510 1509 1508 1508 1507 1506 1506 1505 1504 1503 1502 1501 1501 1500 1498 1498 1497 1496 1496 1495 1494 1493 1492 1491 1491 1489 1488 1487 1486 1485 1484 1483 1481 1481 1479 1478 1477
1502 1502 1503 1504 1504 1505 1505 1506 1506 1507 1507 1508 1509 1509 1510 1510 1511 1511 1511 1511 1512 1512 1512 1512 1512 1512 1512 1511 1511 1511 1510 1510 1509 1508 1508 1507 1506 1506 1505 1504 1504 1503 1502 1501 1500 1499 1497 1496 1496 1495 1495 1494 1493 1492 1491 1491 1490 1488 1487 1486 1485 1484 1483 1482 1481 1480 1479 1478 1477
1502 1502 1503 1504 1504 1505 1505 1506 1506 1507 1508 1508 1509 1509 1510 1510 1511 1511 1511 1511 1512 1512 1512 1512 1512 1511 1511 1511 1511 1510 1510 1509 1508 1508 1507 1506 1506 1505 1505 1504 1503 1502 1501 1500 1499 1498 1497 1496 1495 1494 1494 1494 1493 1492 1491 1490 1489 1487 1486 1486 1485 1484 1483 1482 1481 1480 1479 1478 1476
1501 1502 1503 1504 1504 1505 1505 1506 1507 1507 1508 1508 1509 1509 1510 1510 1511 1511 1511 1511 1511 1511 1511 1511 1511 1511 1511 1511 1510 1509 1509 1508 1508 1507 1506 1506 1505 1505 1504 1503 1502 1501 1501 1500 1499 1498 1497 1496 1495 1493 1493 1493 1492 1491 1490 1489 1488 1487 1486 1485 1484 1483 1482 1481 1480 1479 1479 1478 1476
1501 1502 1503 1504 1504 1505 1505 1506 1507 1507 1508 1509 1509 1510 1510 1510 1511 1511 1511 1511 1511 1511 1511 1511 1511 1511 1510 1510 1509 1509 1508 1507 1507 1506 1506 1505 1505 1504 1503 1502 1502 1501 1500 1499 1499 1498 1497 1496 1494 1493 1492 1492 1491 1491 1490 1489 1488 1486 1486 1485 1484 1483 1482 1481 1480 1479 1478 1477 1476
1501 1502 1503 1504 1504 1505 1506 1506 1507 1507 1508 1509 1509 1509 1510 1510 1510 1511 1511 1511 1511 1511 1511 1510 1510 1510 1509 1509 1508 1508 1507 1507 1506 1506 1505 1505 1504 1503 1502 1502 1501 1501 1500 1499 1498 1497 1496 1495 1494 1493 1492 1491 1491 1490 1489 1488 1487 1486 1485 1484 1483 1482 1481 1480 1480 1479 1478 1477 1476